| time (UTC) | temp F | wind direction | speed MPH | gust MPH | rain 1hr in | rain 24hr in | rain mn in | humidity % | barometer mb |
| 20260906003015 | 83 | 194 | 1.0 | 5.0 | 0.00 | 0.00 | 0.00 | 28 | 1000.0 |
| 20260906001512 | 84 | 95 | 1.0 | 4.0 | 0.00 | 0.00 | 0.00 | 29 | 1000.1 |
| 20260906000030 | 84 | 200 | 2.0 | 5.0 | 0.00 | 0.00 | 0.00 | 28 | 999.9 |
| 20260905234521 | 84 | 125 | 2.0 | 6.0 | 0.00 | 0.00 | 0.00 | 28 | 999.7 |
| 20260905233025 | 85 | 194 | 2.0 | 5.0 | 0.00 | 0.00 | 0.00 | 27 | 999.7 |
| 20260905231513 | 84 | 57 | 1.0 | 4.0 | 0.00 | 0.00 | 0.00 | 27 | 999.8 |
| 20260905230026 | 85 | 271 | 0.0 | 3.0 | 0.00 | 0.00 | 0.00 | 27 | 999.8 |
| 20260905224526 | 86 | 29 | 0.0 | 4.0 | 0.00 | 0.00 | 0.00 | 25 | 999.7 |
| 20260905223019 | 86 | 307 | 1.0 | 5.0 | 0.00 | 0.00 | 0.00 | 27 | 999.7 |
| 20260905221557 | 86 | 82 | 1.0 | 4.0 | 0.00 | 0.00 | 0.00 | 27 | 999.8 |
| 20260905220029 | 86 | 52 | 1.0 | 3.0 | 0.00 | 0.00 | 0.00 | 28 | 999.8 |
| 20260905214521 | 87 | 46 | 0.0 | 4.0 | 0.00 | 0.00 | 0.00 | 27 | 1000.0 |
| 20260905213020 | 87 | 90 | 1.0 | 6.0 | 0.00 | 0.00 | 0.00 | 26 | 1000.0 |
| 20260905211529 | 89 | 134 | 2.0 | 5.0 | 0.00 | 0.00 | 0.00 | 23 | 1000.0 |
| 20260905210031 | 95 | 76 | 2.0 | 7.0 | 0.00 | 0.00 | 0.00 | 23 | 1000.1 |
| 20260905204522 | 90 | 30 | 2.0 | 9.0 | 0.00 | 0.00 | 0.00 | 24 | 1000.3 |
| 20260905203018 | 93 | 277 | 2.0 | 9.0 | 0.00 | 0.00 | 0.00 | 24 | 1000.5 |
| 20260905201555 | 92 | 348 | 2.0 | 6.0 | 0.00 | 0.00 | 0.00 | 25 | 1000.7 |
| 20260905200038 | 90 | 90 | 4.0 | 14.0 | 0.00 | 0.00 | 0.00 | 24 | 1000.6 |
| 20260905194520 | 93 | 44 | 5.0 | 8.0 | 0.00 | 0.00 | 0.00 | 24 | 1000.7 |
| 20260905193026 | 92 | 8 | 2.0 | 8.0 | 0.00 | 0.00 | 0.00 | 25 | 1001.1 |
| 20260905191531 | 92 | 36 | 3.0 | 6.0 | 0.00 | 0.00 | 0.00 | 26 | 1001.2 |
| 20260905190025 | 92 | 31 | 2.0 | 8.0 | 0.00 | 0.00 | 0.00 | 24 | 1001.3 |
| 20260905184532 | 91 | 52 | 3.0 | 8.0 | 0.00 | 0.00 | 0.00 | 26 | 1001.5 |
| 20260905183025 | 90 | 80 | 4.0 | 9.0 | 0.00 | 0.00 | 0.00 | 27 | 1001.6 |
| 20260905181515 | 89 | 69 | 2.0 | 8.0 | 0.00 | 0.00 | 0.00 | 28 | 1001.7 |
| 20260905180027 | 90 | 28 | 3.0 | 9.0 | 0.00 | 0.00 | 0.00 | 29 | 1001.9 |
| 20260905174533 | 89 | 81 | 3.0 | 6.0 | 0.00 | 0.00 | 0.00 | 28 | 1002.0 |
| 20260905173024 | 88 | 61 | 2.0 | 5.0 | 0.00 | 0.00 | 0.00 | 29 | 1002.3 |
| 20260905171512 | 84 | 46 | 2.0 | 6.0 | 0.00 | 0.00 | 0.00 | 30 | 1002.3 |
| 20260905170030 | 86 | 63 | 2.0 | 7.0 | 0.00 | 0.00 | 0.00 | 30 | 1002.2 |
| 20260905164526 | 85 | 60 | 2.0 | 5.0 | 0.00 | 0.00 | 0.00 | 30 | 1002.1 |
| 20260905163019 | 84 | 305 | 1.0 | 6.0 | 0.00 | 0.00 | 0.00 | 31 | 1002.2 |
| 20260905161557 | 82 | 48 | 1.0 | 5.0 | 0.00 | 0.00 | 0.00 | 31 | 1002.1 |
| 20260905160043 | 81 | 273 | 2.0 | 7.0 | 0.00 | 0.00 | 0.00 | 34 | 1002.1 |
| 20260905154523 | 80 | 346 | 1.0 | 4.0 | 0.00 | 0.00 | 0.00 | 34 | 1002.1 |
| 20260905153020 | 78 | 339 | 1.0 | 4.0 | 0.00 | 0.00 | 0.00 | 36 | 1002.1 |
| 20260905151515 | 77 | 302 | 1.0 | 4.0 | 0.00 | 0.00 | 0.00 | 37 | 1002.2 |
| 20260905150013 | 73 | 295 | 0.0 | 2.0 | 0.00 | 0.00 | 0.00 | 44 | 1002.3 |
| 20260905144542 | 73 | 163 | 1.0 | 4.0 | 0.00 | 0.00 | 0.00 | 41 | 1002.4 |
| 20260905143026 | 72 | 288 | 0.0 | 4.0 | 0.00 | 0.00 | 0.00 | 43 | 1002.3 |
| 20260905141538 | 71 | 137 | 1.0 | 3.0 | 0.00 | 0.00 | 0.00 | 45 | 1002.2 |
| 20260905140016 | 68 | 180 | 0.0 | 2.0 | 0.00 | 0.00 | 0.00 | 50 | 1002.0 |
| 20260905134531 | 67 | 226 | 1.0 | 2.0 | 0.00 | 0.00 | 0.00 | 52 | 1001.9 |
| 20260905133040 | 65 | 152 | 0.0 | 2.0 | 0.00 | 0.00 | 0.00 | 53 | 1001.8 |
| 20260905131536 | 64 | 165 | 1.0 | 2.0 | 0.00 | 0.00 | 0.00 | 57 | 1001.8 |
| 20260905130017 | 64 | 172 | 1.0 | 3.0 | 0.00 | 0.00 | 0.00 | 55 | 1001.6 |
| 20260905124533 | 64 | 154 | 1.0 | 2.0 | 0.00 | 0.00 | 0.00 | 56 | 1001.2 |
| 20260905123023 | 64 | 129 | 1.0 | 3.0 | 0.00 | 0.00 | 0.00 | 55 | 1001.0 |
| 20260905121517 | 63 | 32 | 0.0 | 2.0 | 0.00 | 0.00 | 0.00 | 58 | 1000.8 |
| 20260905120058 | 63 | 221 | 0.0 | 2.0 | 0.00 | 0.00 | 0.00 | 59 | 1000.8 |
| 20260905114530 | 63 | 281 | 0.0 | 2.0 | 0.00 | 0.00 | 0.00 | 64 | 1000.8 |
| 20260905113024 | 62 | 159 | 0.0 | 2.0 | 0.00 | 0.00 | 0.00 | 65 | 1000.7 |
| 20260905111516 | 63 | 163 | 0.0 | 2.0 | 0.00 | 0.00 | 0.00 | 64 | 1000.8 |
| 20260905110030 | 63 | 185 | 0.0 | 2.0 | 0.00 | 0.00 | 0.00 | 64 | 1000.8 |
| 20260905104533 | 61 | 190 | 0.0 | 1.0 | 0.00 | 0.00 | 0.00 | 67 | 1000.7 |
| 20260905103030 | 63 | 190 | 0.0 | 1.0 | 0.00 | 0.00 | 0.00 | 63 | 1000.6 |
| 20260905101515 | 64 | 185 | 0.0 | 1.0 | 0.00 | 0.00 | 0.00 | 62 | 1000.5 |
| 20260905100030 | 64 | 134 | 0.0 | 1.0 | 0.00 | 0.00 | 0.00 | 62 | 1000.6 |
| 20260905094523 | 65 | 128 | 0.0 | 2.0 | 0.00 | 0.00 | 0.00 | 60 | 1000.6 |
| 20260905093025 | 65 | 172 | 0.0 | 1.0 | 0.00 | 0.00 | 0.00 | 60 | 1000.4 |
| 20260905091514 | 66 | 163 | 0.0 | 2.0 | 0.00 | 0.00 | 0.00 | 59 | 1000.4 |
| 20260905090028 | 65 | 208 | 0.0 | 1.0 | 0.00 | 0.00 | 0.00 | 60 | 1000.4 |
| 20260905084527 | 66 | 173 | 0.0 | 1.0 | 0.00 | 0.00 | 0.00 | 59 | 1000.4 |
| 20260905083019 | 67 | 152 | 0.0 | 2.0 | 0.00 | 0.00 | 0.00 | 58 | 1000.5 |
| 20260905081514 | 67 | 234 | 0.0 | 2.0 | 0.00 | 0.00 | 0.00 | 57 | 1000.6 |
| 20260905080037 | 68 | 229 | 0.0 | 5.0 | 0.00 | 0.00 | 0.00 | 56 | 1000.5 |
| 20260905074532 | 69 | 154 | 1.0 | 3.0 | 0.00 | 0.00 | 0.00 | 54 | 1000.5 |
| 20260905073024 | 70 | 223 | 1.0 | 4.0 | 0.00 | 0.00 | 0.00 | 53 | 1000.6 |
| 20260905071554 | 70 | 197 | 1.0 | 4.0 | 0.00 | 0.00 | 0.00 | 52 | 1000.7 |
| 20260905070028 | 70 | 165 | 1.0 | 5.0 | 0.00 | 0.00 | 0.00 | 53 | 1000.6 |
| 20260905064522 | 70 | 185 | 2.0 | 6.0 | 0.00 | 0.00 | 0.00 | 52 | 1000.6 |
| 20260905063015 | 69 | 204 | 2.0 | 4.0 | 0.00 | 0.00 | 0.00 | 49 | 1000.7 |
| 20260905061531 | 69 | 169 | 1.0 | 3.0 | 0.00 | 0.00 | 0.00 | 47 | 1000.8 |
| 20260905060025 | 69 | 174 | 0.0 | 4.0 | 0.00 | 0.00 | 0.00 | 48 | 1000.5 |
| 20260905054519 | 69 | 169 | 0.0 | 3.0 | 0.00 | 0.00 | 0.00 | 50 | 1000.4 |
| 20260905053011 | 71 | 166 | 0.0 | 2.0 | 0.00 | 0.00 | 0.00 | 45 | 1000.5 |
| 20260905051529 | 71 | 235 | 0.0 | 2.0 | 0.00 | 0.00 | 0.00 | 44 | 1000.2 |
| 20260905044523 | 71 | 227 | 1.0 | 5.0 | 0.00 | 0.00 | 0.00 | 46 | 1000.3 |
| 20260905043016 | 71 | 231 | 1.0 | 4.0 | 0.00 | 0.00 | 0.00 | 48 | 1000.3 |
| 20260905041530 | 74 | 240 | 1.0 | 8.0 | 0.00 | 0.00 | 0.00 | 42 | 1000.0 |
| 20260905040028 | 75 | 240 | 3.0 | 10.0 | 0.00 | 0.00 | 0.00 | 40 | 1000.0 |
| 20260905034523 | 74 | 185 | 4.0 | 12.0 | 0.00 | 0.00 | 0.00 | 40 | 1000.1 |
| 20260905033030 | 74 | 154 | 2.0 | 10.0 | 0.00 | 0.00 | 0.00 | 41 | 999.9 |
| 20260905031609 | 74 | 195 | 2.0 | 8.0 | 0.00 | 0.00 | 0.00 | 41 | 999.8 |
| 20260905030026 | 74 | 79 | 2.0 | 9.0 | 0.00 | 0.00 | 0.00 | 41 | 999.6 |
| 20260905024525 | 74 | 100 | 3.0 | 8.0 | 0.00 | 0.00 | 0.00 | 40 | 999.4 |
| 20260905023037 | 74 | 180 | 1.0 | 5.0 | 0.00 | 0.00 | 0.00 | 40 | 999.2 |
| 20260905021532 | 75 | 171 | 2.0 | 5.0 | 0.00 | 0.00 | 0.00 | 39 | 999.3 |
| 20260905020030 | 76 | 160 | 2.0 | 6.0 | 0.00 | 0.00 | 0.00 | 38 | 999.0 |
| 20260905014528 | 76 | 114 | 4.0 | 10.0 | 0.00 | 0.00 | 0.00 | 36 | 999.0 |
| 20260905013024 | 78 | 53 | 5.0 | 11.0 | 0.00 | 0.00 | 0.00 | 34 | 998.8 |
| 20260905011516 | 79 | 190 | 3.0 | 9.0 | 0.00 | 0.00 | 0.00 | 31 | 998.4 |
| 20260905010034 | 82 | 173 | 4.0 | 11.0 | 0.00 | 0.00 | 0.00 | 29 | 998.3 |
| 20260905004524 | 82 | 72 | 1.0 | 9.0 | 0.00 | 0.00 | 0.00 | 29 | 998.3 |